Weather History for Kaneohe MCBH, HI

Change the Weather History Date:

Thursday, January 10, 2013

  Actual Average Record
Temperature  
Mean Temperature 76 °F -  
Max Temperature 82 °F 76 °F 82 °F (2013)
Min Temperature 71 °F 66 °F 59 °F (2003)
Cooling Degree Days 12    
Growing Degree Days 26 (Base 50)    
Moisture  
Dew Point 64 °F    
Average Humidity 68    
Maximum Humidity 75    
Minimum Humidity 55    
Precipitation  
Precipitation 0.00 in - - ()
Sea Level Pressure  
Sea Level Pressure 29.98 in    
Wind  
Wind Speed 9 mph (East)    
Max Wind Speed 14 mph    
Max Gust Speed 22 mph    
Visibility 9 miles    
Events      
Averages and records for this station are not official NWS values.
T = Trace of Precipitation, MM = Missing Value Source: NWS Daily Summary

Daily Weather History Graph

Daily Weather History Graph

Search for Another Location

Airport:

Trip Planner

Search our weather history database for the weather conditions in past years. The results will help you decide how hot, cold, wet, or windy it might be!

Date:

Astronomy

Jan. 10, 2013 Rise Set
Actual Time 7:11 AM HST 6:06 PM HST
Civil Twilight 6:47 AM HST 6:30 PM HST
Nautical Twilight 6:19 AM HST 6:58 PM HST
Astronomical Twilight 5:52 AM HST 7:25 PM HST
Moon 6:02 AM HST (1/10) 5:24 PM HST (1/10)
Length of Visible Light 11h 43m
Length of Day
10h 55m
Waning Crescent, 1% of the Moon is Illuminated
Jan 10
Waning Crescent
Jan 11
New
Jan 18
First Quarter
Jan 26
Full
Feb 3
Last Quarter

Hourly Weather History & Observations

Time (HST) Temp. Heat Index Dew Point Humidity Pressure Visibility Wind Dir Wind Speed Gust Speed Precip Events Conditions
12:57 AM - - - N/A% 29.97 in 10.0 mi East 8.1 mph 18.4 mph N/A   Overcast
1:08 AM - - - N/A% 29.98 in 6.2 mi East 11.5 mph 18.4 mph N/A   Mostly Cloudy
1:57 AM - - - N/A% 29.98 in 10.0 mi East 8.1 mph - N/A   Mostly Cloudy
2:57 AM - - - N/A% 29.96 in 10.0 mi East 8.1 mph - N/A   Partly Cloudy
3:57 AM - - - N/A% 29.95 in 10.0 mi East 5.8 mph - N/A   Partly Cloudy
4:57 AM - - - N/A% 29.96 in 10.0 mi East 4.6 mph - N/A   Scattered Clouds
5:57 AM 71.6 °F - 61.0 °F 69% 29.96 in 10.0 mi East 8.1 mph - N/A   Partly Cloudy
6:57 AM 71.6 °F - 61.0 °F 69% 29.97 in 10.0 mi East 6.9 mph - N/A   Scattered Clouds
7:22 AM 71.6 °F - 62.6 °F 73% 29.99 in 6.2 mi ENE 6.9 mph - N/A   Mostly Cloudy
7:43 AM 71.6 °F - 62.6 °F 73% 29.99 in 6.2 mi Variable 6.9 mph - N/A   Mostly Cloudy
7:57 AM 73.4 °F - 62.1 °F 68% 29.98 in 10.0 mi East 8.1 mph - N/A   Scattered Clouds
8:57 AM 75.2 °F - 63.0 °F 66% 29.99 in 10.0 mi East 8.1 mph - N/A   Scattered Clouds
9:36 AM 75.2 °F - 64.4 °F 69% 30.02 in 6.2 mi ESE 13.8 mph 20.7 mph N/A   Mostly Cloudy
9:55 AM 77.0 °F - 64.4 °F 65% 30.02 in 6.2 mi East 11.5 mph 20.7 mph N/A   Scattered Clouds
9:57 AM 77.0 °F - 64.0 °F 64% 30.01 in 10.0 mi East 10.4 mph 20.7 mph N/A   Scattered Clouds
10:57 AM 77.0 °F - 63.0 °F 62% 29.99 in 10.0 mi East 11.5 mph 20.7 mph N/A   Mostly Cloudy
11:57 AM 78.8 °F - 64.0 °F 60% 29.96 in 10.0 mi East 11.5 mph 19.6 mph N/A   Mostly Cloudy
12:57 PM 78.8 °F - 64.0 °F 60% 29.94 in 10.0 mi East 11.5 mph 19.6 mph N/A   Mostly Cloudy
1:57 PM 80.6 °F 82.4 °F 64.9 °F 59% 29.93 in 10.0 mi East 12.7 mph 19.6 mph N/A   Mostly Cloudy
2:57 PM 82.4 °F 84.1 °F 64.9 °F 55% 29.93 in 10.0 mi ESE 12.7 mph 19.6 mph N/A   Mostly Cloudy
3:11 PM - - - N/A% - - North - - N/A   Unknown
3:57 PM 78.8 °F - 64.9 °F 62% 29.94 in 10.0 mi East 10.4 mph 19.6 mph N/A   Mostly Cloudy
4:13 PM 78.8 °F - 64.4 °F 61% 29.96 in 6.2 mi East 8.1 mph - N/A   Mostly Cloudy
4:57 PM 77.0 °F - 64.9 °F 66% 29.95 in 10.0 mi East 9.2 mph - N/A   Mostly Cloudy
5:57 PM 75.2 °F - 64.9 °F 70% 29.96 in 10.0 mi East 8.1 mph - N/A   Partly Cloudy
6:55 PM 75.2 °F - 64.4 °F 69% 29.99 in 6.2 mi ENE 10.4 mph 20.7 mph N/A   Mostly Cloudy
6:57 PM 75.2 °F - 64.0 °F 68% 29.97 in 10.0 mi East 10.4 mph 20.7 mph N/A   Mostly Cloudy
7:08 PM 75.2 °F - 64.4 °F 69% 29.99 in 6.2 mi ENE 10.4 mph 21.9 mph N/A   Scattered Clouds
7:22 PM 75.2 °F - 64.4 °F 69% 29.99 in 6.2 mi East 6.9 mph - N/A   Mostly Cloudy
7:57 PM 73.4 °F - 64.0 °F 72% 29.98 in 10.0 mi East 10.4 mph 17.3 mph N/A   Mostly Cloudy
8:57 PM 73.4 °F - 64.9 °F 75% 29.98 in 10.0 mi East 9.2 mph 18.4 mph N/A   Mostly Cloudy
9:26 PM 73.4 °F - 64.4 °F 73% 30.00 in 6.2 mi Variable 6.9 mph 21.9 mph N/A   Scattered Clouds
9:30 PM - - - N/A% - - North - - N/A   Unknown
9:57 PM 73.4 °F - 64.0 °F 72% 29.99 in 10.0 mi ENE 9.2 mph - N/A   Scattered Clouds
10:09 PM 73.4 °F - 64.4 °F 73% 30.00 in 10.0 mi ENE 10.4 mph 17.3 mph N/A   Mostly Cloudy
10:57 PM 73.4 °F - 64.0 °F 72% 29.99 in 10.0 mi East 8.1 mph 20.7 mph N/A   Mostly Cloudy
11:52 PM 73.4 °F - 64.4 °F 73% 29.99 in 10.0 mi ENE 13.8 mph 21.9 mph N/A   Scattered Clouds
11:57 PM 73.4 °F - 64.9 °F 75% 29.97 in 10.0 mi ENE 12.7 mph 21.9 mph N/A   Scattered Clouds